Starlink 32718

operational
NORAD ID: 62496 Int'l Des: 2025-003 Owner: SPXS Country: US Constellation: starlink
LEOCIRCULAR

Über Starlink 32718

Beschreibung wird geladen...

Live-Position

3D-Globus wird geladen...

Nächste Überflüge

Höhenverlauf

Altitude vs Time

uPlot chart will show altitude changes over time

Zweizeiliger Elementsatz

1 62496U 25003K 25347.49934339 .00045006 00000-0 16327-2 0 9998
2 62496 43.0019 55.4081 0000499 264.1736 95.9059 15.27627939 53376
Epoch: 13. Dez. 2025 • Age: 24 hours

Aktueller Status

Höhe 483.8 km
Geschwindigkeit 7.62 km/s
Subsatellitenpunkt -8.26°S, 30.23°W
Startdatum 6. Jan. 2025
Alter 0.9 years
Typ internet

Technische Details

Klassifizierung Payload
Masse 730.00 kg
Trockenmasse 700.00 kg
Gesamtmasse 730.00 kg
Länge 0.30 m
Durchmesser 4.10 m
Spannweite 29.00 m
Form Box + pan
Hersteller SPXS
Bus-Typ Starlink V2M
Phasenstatus In Orbit
Besitzer/Staat SPXS/US

Große Konstellationen

Loading constellations...